Flag for Faroe Islands Weather past 2 weeks in Tórshavn, Faroe Islands, Faroe Islands

Now
39 °F

Light rain. Overcast.


Feels Like: 31 °F
Forecast: N/A
Wind: 15 mph from Southeast

Location: Soervaag / Vagar

Current Time: Dec 20, 2014 at 9:48:09 PM

Latest Report: Dec 20, 2014 at 9:20 PM


Visibility: N/A

Pressure: 29.71 "Hg

Humidity: 87%

Dew point: 36 °F

Location of TórshavnLocation

Historic Weather in Tórshavn — Graph

°F

Tórshavn temperature yesterday

Maximum temperature yesterday: 39 °F (at 11:20 AM)
Minimum temperature yesterday: 34 °F (at 12:20 AM)
Average temperature yesterday: 36 °F

Past Weeks' High & Low Weather Summary

 TemperatureHumidityPressure
High46 °F (Dec 6, 4:50 AM)100% (Dec 6, 4:20 AM)30.01 "Hg (Dec 6, 4:20 AM)
Low27 °F (Dec 8, 6:20 PM)37% (Dec 15, 8:20 AM)28.29 "Hg (Dec 10, 11:51 AM)
Average37 °F76%29.13 "Hg
* Reported Dec 5 8:20 PM — Dec 20 8:20 PM, Tórshavn, Weather by CustomWeather, © 2014

Note: Actual official high and low records may vary slightly from our data, if they occured in-between our weather recording intervals... More about our weather records

Advertising

Tórshavn weather history for previous 24 hours

 ConditionsComfort  
Time TempWeatherWind HumidityBarometerVisibility
8:20 PM
Dec 20
39 °FLight rain. Passing clouds.15 mph87%29.77 "HgN/A
7:50 PM39 °FLight rain. Passing clouds.15 mph87%29.80 "HgN/A
7:20 PM39 °FLight rain. Passing clouds.16 mph81%29.80 "HgN/A
6:50 PM39 °FPassing clouds.14 mph81%29.80 "HgN/A
6:20 PM39 °FLight rain. Passing clouds.12 mph75%29.83 "HgN/A
5:50 PM37 °FPassing clouds.6 mph93%29.83 "HgN/A
5:20 PM36 °FPassing clouds.6 mph87%29.86 "HgN/A
4:50 PM36 °FOvercast.5 mph87%29.86 "HgN/A
4:20 PM36 °FPassing clouds.1 mph81%29.86 "HgN/A
3:50 PM34 °FPassing clouds.1 mph87%29.89 "HgN/A
3:20 PM36 °FPassing clouds.1 mph81%29.89 "HgN/A
2:50 PM36 °FPartly sunny.No wind81%29.89 "HgN/A
2:20 PM36 °FPartly sunny.1 mph81%29.89 "HgN/A
1:50 PM36 °FPartly sunny.No wind81%29.89 "HgN/A
1:20 PM36 °FChilly.No wind81%29.89 "HgN/A
12:50 PM37 °FPartly sunny.1 mph75%29.86 "HgN/A
12:20 PM37 °FPartly sunny.7 mph75%29.86 "HgN/A
11:50 AM37 °FPassing clouds.6 mph75%29.86 "HgN/A
11:20 AM37 °FChilly.9 mph75%29.83 "HgN/A
10:50 AM39 °FPassing clouds.8 mph70%29.83 "HgN/A
10:20 AM39 °FPassing clouds.12 mph70%29.80 "HgN/A
9:50 AM39 °FPassing clouds.12 mph75%29.77 "HgN/A
9:20 AM39 °FSprinkles. Passing clouds.18 mph75%29.77 "HgN/A
8:50 AM39 °FSprinkles. Passing clouds.24 mph75%29.74 "HgN/A
8:20 AM39 °FChilly.30 mph70%29.71 "HgN/A
7:50 AM39 °FPassing clouds.26 mph65%29.68 "HgN/A
7:20 AM39 °FPassing clouds.23 mph65%29.68 "HgN/A
6:50 AM39 °FPassing clouds.22 mph61%29.65 "HgN/A
6:20 AM39 °FPassing clouds.24 mph61%29.62 "HgN/A
5:50 AM39 °FPassing clouds.23 mph61%29.59 "HgN/A
5:20 AM39 °FPassing clouds.21 mph61%29.56 "HgN/A
4:50 AM39 °FPassing clouds.25 mph65%29.53 "HgN/A
4:20 AM39 °FPassing clouds.20 mph61%29.53 "HgN/A
3:50 AM37 °FPassing clouds.22 mph65%29.50 "HgN/A
3:20 AM37 °FRain showers. Partly cloudy.18 mph70%29.47 "HgN/A
2:50 AM36 °FSleet. Fog.22 mph81%29.45 "Hg2 mi
2:20 AM37 °FPassing clouds.22 mph70%29.42 "HgN/A
1:50 AM37 °FPassing clouds.28 mph75%29.39 "HgN/A
1:20 AM37 °FPassing clouds.25 mph75%29.36 "HgN/A
12:50 AM36 °FPartly cloudy.25 mph81%29.33 "HgN/A
12:20 AM34 °FSleet. Passing clouds.22 mph87%29.30 "HgN/A
11:50 PM
Dec 19
34 °FSleet. Low clouds.23 mph93%29.30 "Hg2 mi
11:20 PM36 °FSprinkles. Passing clouds.22 mph81%29.24 "Hg3 mi
10:50 PM36 °FSnow flurries. Partly cloudy.24 mph81%29.21 "Hg6 mi
10:20 PM34 °FLight snow. Passing clouds.26 mph87%29.18 "HgN/A
9:50 PM34 °FLight snow. Passing clouds.24 mph87%29.15 "Hg2 mi
9:20 PM34 °FLight snow. Passing clouds.28 mph87%29.12 "Hg2 mi
Weather by CustomWeather, © 2014

See weather overviewHow to use our weather pages